Weather History for Marianna, FL

Change the Weather History Date:

Thursday, June 27, 2013

  Actual Average Record
Temperature  
Mean Temperature 82 °F -  
Max Temperature 90 °F - - ()
Min Temperature 74 °F - - ()
Cooling Degree Days 16    
Growing Degree Days 32 (Base 50)    
Moisture  
Dew Point 74 °F    
Average Humidity 76    
Maximum Humidity 94    
Minimum Humidity 59    
Precipitation  
Precipitation 0.00 in - - ()
Month to date precipitation 3.44    
Year to date precipitation 24.34    
Sea Level Pressure  
Sea Level Pressure 29.96 in    
Wind  
Wind Speed 4 mph (WSW)    
Max Wind Speed 13 mph    
Max Gust Speed 18 mph    
Visibility 10 miles    
Events      
Averages and records for this station are not official NWS values.
T = Trace of Precipitation, MM = Missing Value Source: NWS Daily Summary

Daily Weather History Graph

Daily Weather History Graph

Search for Another Location

Airport:

Trip Planner

Search our weather history database for the weather conditions in past years. The results will help you decide how hot, cold, wet, or windy it might be!

Date:

Astronomy

Jun. 27, 2013 Rise Set
Actual Time 5:39 AM CDT 7:47 PM CDT
Civil Twilight 5:12 AM CDT 8:15 PM CDT
Nautical Twilight 4:38 AM CDT 8:49 PM CDT
Astronomical Twilight 4:01 AM CDT 9:25 PM CDT
Moon 11:07 PM CDT (6/27) 10:19 AM CDT (6/27)
Length of Visible Light 15h 03m
Length of Day
14h 08m
Waning Gibbous, 76% of the Moon is Illuminated
Jun 27
Waning Gibbous
Jun 29
Last Quarter
Jul 8
New
Jul 15
First Quarter
Jul 22
Full

Hourly Weather History & Observations

Time (CDT) Temp. Heat Index Dew Point Humidity Pressure Visibility Wind Dir Wind Speed Gust Speed Precip Events Conditions
12:53 AM 75.9 °F - 73.9 °F 94% 30.00 in 10.0 mi Calm Calm - N/A   Clear
1:53 AM 75.9 °F - 73.9 °F 94% 29.99 in 10.0 mi Calm Calm - N/A   Clear
2:53 AM 75.9 °F - 73.0 °F 91% 30.00 in 10.0 mi Calm Calm - N/A   Clear
3:53 AM 75.0 °F - 73.0 °F 94% 29.99 in 10.0 mi Calm Calm - N/A   Clear
4:53 AM 73.9 °F - 72.0 °F 93% 29.99 in 10.0 mi SSW 3.5 mph - N/A   Clear
5:53 AM 73.9 °F - 72.0 °F 93% 30.01 in 10.0 mi Calm Calm - N/A   Clear
6:53 AM 75.0 °F - 73.0 °F 94% 30.01 in 10.0 mi West 3.5 mph - N/A   Partly Cloudy
7:53 AM 79.0 °F - 75.0 °F 88% 30.01 in 10.0 mi West 5.8 mph - N/A   Clear
8:53 AM 82.9 °F 90.2 °F 75.0 °F 77% 30.01 in 10.0 mi West 8.1 mph - N/A   Clear
9:53 AM 86.0 °F 93.8 °F 73.9 °F 67% 30.00 in 10.0 mi West 9.2 mph - N/A   Partly Cloudy
10:24 AM 86.0 °F 93.4 °F 73.4 °F 66% 30.01 in 10.0 mi West 6.9 mph - N/A   Mostly Cloudy
10:43 AM 87.8 °F 95.6 °F 73.4 °F 62% 30.01 in 10.0 mi West 12.7 mph 18.4 mph N/A   Scattered Clouds
10:53 AM 87.1 °F 94.5 °F 73.0 °F 63% 30.01 in 10.0 mi WNW 8.1 mph - N/A   Mostly Cloudy
11:53 AM 89.1 °F 97.0 °F 73.0 °F 59% 29.99 in 10.0 mi West 6.9 mph - N/A   Clear
12:53 PM 89.1 °F 97.0 °F 73.0 °F 59% 29.98 in 10.0 mi WNW 9.2 mph - N/A   Partly Cloudy
1:53 PM 88.0 °F 96.5 °F 73.9 °F 63% 29.95 in 10.0 mi West 6.9 mph - N/A   Clear
2:53 PM 89.1 °F 97.0 °F 73.0 °F 59% 29.94 in 10.0 mi West 5.8 mph - N/A   Clear
3:53 PM 88.0 °F 96.5 °F 73.9 °F 63% 29.93 in 10.0 mi WNW 4.6 mph - N/A   Clear
4:53 PM 89.1 °F 98.0 °F 73.9 °F 61% 29.91 in 10.0 mi WNW 4.6 mph - N/A   Clear
5:53 PM 90.0 °F 100.2 °F 75.0 °F 61% 29.89 in 10.0 mi WSW 5.8 mph - N/A   Clear
6:53 PM 87.1 °F 97.3 °F 75.9 °F 69% 29.90 in 10.0 mi WSW 9.2 mph - N/A   Partly Cloudy
7:53 PM 84.0 °F 92.6 °F 75.9 °F 76% 29.91 in 10.0 mi SW 8.1 mph - N/A   Clear
8:53 PM 82.0 °F 88.6 °F 75.0 °F 79% 29.90 in 10.0 mi SSW 6.9 mph - N/A   Clear
9:53 PM 81.0 °F 87.3 °F 75.9 °F 85% 29.92 in 10.0 mi SW 6.9 mph - N/A   Clear
10:53 PM 81.0 °F 87.3 °F 75.9 °F 85% 29.92 in 10.0 mi SW 5.8 mph - N/A   Scattered Clouds
11:53 PM 80.1 °F 85.4 °F 75.9 °F 87% 29.90 in 10.0 mi SSW 8.1 mph - N/A   Partly Cloudy